Private Wetterstation Wechselburg
Wetterdaten: Sonntag, 19.12.2021
Datum Zeit Temp. +2m Bodentemp. Temp.+5cm Temp. Wind Windchill X Diff Temp. Feuchte +2m Feuchte +5cm Luftdruck Regen Wind Richtung Richtung Sonnenschein Taupunkt Windchill Windben
19.12.2021 00:00 5,5 C 8,8 C 5,5 C 5,4 C 5,3 C 0,0 C 89 % 95 % 1031,1 hPa 0,0 l/m 6,0 km/h (2 Bft) W-SW 247 0 min 3,8 C 4,1 C 6,4 km/h (2 Bft)
19.12.2021 00:05 5,5 C 8,8 C 5,4 C 5,6 C 5,6 C 0,1 C 89 % 94 % 1031,1 hPa 0,0 l/m 5,3 km/h (1 Bft) W-SW 247 0 min 3,8 C 4,7 C 8,2 km/h (2 Bft)
19.12.2021 00:10 5,5 C 8,8 C 5,4 C 5,8 C 5,8 C 0,3 C 89 % 95 % 1031,2 hPa 0,0 l/m 4,7 km/h (1 Bft) W-SW 247 0 min 3,8 C 5,1 C 4,3 km/h (1 Bft)
19.12.2021 00:15 5,5 C 8,8 C 5,4 C 5,7 C 5,7 C 0,2 C 89 % 95 % 1031,2 hPa 0,0 l/m 5,0 km/h (1 Bft) W-SW 247 0 min 3,8 C 4,9 C 8,7 km/h (2 Bft)
19.12.2021 00:20 5,5 C 8,8 C 5,4 C 5,7 C 5,7 C 0,2 C 89 % 94 % 1031,2 hPa 0,0 l/m 4,8 km/h (1 Bft) SW 225 0 min 3,8 C 5,0 C 6,3 km/h (2 Bft)
19.12.2021 00:25 5,6 C 8,8 C 5,3 C 5,7 C 5,7 C 0,1 C 89 % 94 % 1031,2 hPa 0,0 l/m 5,0 km/h (1 Bft) SW 225 0 min 3,9 C 4,9 C 10,1 km/h (2 Bft)
19.12.2021 00:30 5,6 C 8,8 C 5,4 C 5,5 C 5,4 C 0,0 C 89 % 94 % 1030,8 hPa 0,0 l/m 5,6 km/h (1 Bft) SW 225 0 min 3,9 C 4,3 C 9,2 km/h (2 Bft)
19.12.2021 00:35 5,7 C 8,8 C 5,3 C 5,6 C 5,4 C 0,0 C 89 % 94 % 1030,8 hPa 0,0 l/m 5,6 km/h (1 Bft) SW 225 0 min 4,0 C 4,3 C 8,2 km/h (2 Bft)
19.12.2021 00:40 5,7 C 8,8 C 5,3 C 5,7 C 5,6 C 0,0 C 89 % 94 % 1030,8 hPa 0,0 l/m 5,3 km/h (1 Bft) SW 225 0 min 4,0 C 4,7 C 6,1 km/h (2 Bft)
19.12.2021 00:45 5,6 C 8,8 C 5,3 C 5,6 C 5,6 C 0,0 C 89 % 94 % 1030,8 hPa 0,0 l/m 4,8 km/h (1 Bft) S-SW 202 0 min 3,9 C 4,8 C 7,6 km/h (2 Bft)
19.12.2021 00:50 5,6 C 8,8 C 5,3 C 5,6 C 5,6 C 0,0 C 89 % 94 % 1030,8 hPa 0,0 l/m 4,8 km/h (1 Bft) SW 225 0 min 3,9 C 4,8 C 6,8 km/h (2 Bft)
19.12.2021 00:55 5,6 C 8,7 C 5,3 C 5,6 C 5,5 C 0,0 C 89 % 94 % 1030,8 hPa 0,0 l/m 5,0 km/h (1 Bft) S-SW 202 0 min 3,9 C 4,7 C 4,0 km/h (1 Bft)
19.12.2021 01:00 5,6 C 8,7 C 5,3 C 5,7 C 5,7 C 0,1 C 89 % 94 % 1030,8 hPa 0,0 l/m 4,7 km/h (1 Bft) S-SO 157 0 min 3,9 C 5,0 C 6,6 km/h (2 Bft)
19.12.2021 01:05 5,6 C 8,8 C 5,2 C 5,7 C 5,7 C 0,1 C 89 % 94 % 1030,8 hPa 0,0 l/m 4,7 km/h (1 Bft) SW 225 0 min 3,9 C 5,0 C 6,8 km/h (2 Bft)
19.12.2021 01:10 5,6 C 8,7 C 5,3 C 5,5 C 5,3 C 0,0 C 89 % 94 % 1030,4 hPa 0,0 l/m 5,5 km/h (1 Bft) SW 225 0 min 3,9 C 4,2 C 6,8 km/h (2 Bft)
19.12.2021 01:15 5,7 C 8,7 C 5,3 C 5,6 C 5,3 C 0,0 C 89 % 94 % 1030,4 hPa 0,0 l/m 5,6 km/h (1 Bft) SW 225 0 min 4,0 C 4,2 C 12,1 km/h (2 Bft)
19.12.2021 01:20 5,7 C 8,7 C 5,3 C 5,6 C 5,4 C 0,0 C 89 % 94 % 1030,4 hPa 0,0 l/m 5,1 km/h (1 Bft) SW 225 0 min 4,0 C 4,5 C 6,4 km/h (2 Bft)
19.12.2021 01:25 5,7 C 8,7 C 5,2 C 5,7 C 5,6 C 0,0 C 89 % 94 % 1030,4 hPa 0,0 l/m 4,8 km/h (1 Bft) SW 225 0 min 4,0 C 4,8 C 6,3 km/h (2 Bft)
19.12.2021 01:30 5,7 C 8,7 C 5,3 C 5,6 C 5,4 C 0,0 C 89 % 94 % 1030,7 hPa 0,0 l/m 5,1 km/h (1 Bft) SW 225 0 min 4,0 C 4,5 C 5,8 km/h (2 Bft)
19.12.2021 01:35 5,7 C 8,7 C 5,3 C 5,6 C 5,5 C 0,0 C 89 % 94 % 1030,7 hPa 0,0 l/m 5,0 km/h (1 Bft) SW 225 0 min 4,0 C 4,7 C 5,6 km/h (1 Bft)
19.12.2021 01:40 5,7 C 8,7 C 5,3 C 5,6 C 5,4 C 0,0 C 89 % 94 % 1030,7 hPa 0,0 l/m 5,1 km/h (1 Bft) W-NW 292 0 min 4,0 C 4,5 C 4,2 km/h (1 Bft)
19.12.2021 01:45 5,7 C 8,7 C 5,3 C 5,6 C 5,4 C 0,0 C 89 % 94 % 1030,7 hPa 0,0 l/m 5,3 km/h (1 Bft) O 90 0 min 4,0 C 4,4 C 5,5 km/h (1 Bft)
19.12.2021 01:50 5,7 C 8,7 C 5,2 C 5,6 C 5,5 C 0,0 C 89 % 94 % 1030,4 hPa 0,0 l/m 4,8 km/h (1 Bft) W-SW 247 0 min 4,0 C 4,7 C 3,7 km/h (1 Bft)
19.12.2021 01:55 5,7 C 8,7 C 5,2 C 5,8 C 5,8 C 0,1 C 89 % 94 % 1030,4 hPa 0,0 l/m 4,2 km/h (1 Bft) S 180 0 min 4,0 C 5,8 C 6,1 km/h (2 Bft)
19.12.2021 02:00 5,7 C 8,7 C 5,2 C 5,8 C 5,8 C 0,1 C 89 % 94 % 1030,4 hPa 0,0 l/m 4,2 km/h (1 Bft) W-SW 247 0 min 4,0 C 5,8 C 3,4 km/h (1 Bft)
19.12.2021 02:05 5,6 C 8,7 C 5,2 C 5,7 C 5,7 C 0,1 C 89 % 94 % 1030,4 hPa 0,0 l/m 4,5 km/h (1 Bft) S 180 0 min 3,9 C 5,7 C 8,2 km/h (2 Bft)
19.12.2021 02:10 5,6 C 8,8 C 5,2 C 5,6 C 5,5 C 0,0 C 89 % 94 % 1029,9 hPa 0,0 l/m 4,8 km/h (1 Bft) SW 225 0 min 3,9 C 4,7 C 7,7 km/h (2 Bft)
19.12.2021 02:15 5,6 C 8,7 C 5,2 C 5,6 C 5,5 C 0,0 C 89 % 94 % 1029,9 hPa 0,0 l/m 4,8 km/h (1 Bft) SW 225 0 min 3,9 C 4,7 C 4,8 km/h (1 Bft)
19.12.2021 02:20 5,7 C 8,8 C 5,2 C 5,7 C 5,6 C 0,0 C 89 % 94 % 1029,9 hPa 0,0 l/m 4,7 km/h (1 Bft) SW 225 0 min 4,0 C 4,9 C 4,7 km/h (1 Bft)
19.12.2021 02:25 5,6 C 8,7 C 5,2 C 5,7 C 5,7 C 0,1 C 89 % 94 % 1029,9 hPa 0,0 l/m 4,0 km/h (1 Bft) SW 225 0 min 3,9 C 5,7 C 9,3 km/h (2 Bft)
19.12.2021 02:30 5,6 C 8,7 C 5,2 C 5,6 C 5,6 C 0,0 C 89 % 94 % 1029,8 hPa 0,0 l/m 4,3 km/h (1 Bft) SW 225 0 min 3,9 C 5,6 C 5,5 km/h (1 Bft)
19.12.2021 02:35 5,6 C 8,7 C 5,1 C 5,5 C 5,4 C 0,0 C 89 % 94 % 1029,8 hPa 0,0 l/m 5,1 km/h (1 Bft) SW 225 0 min 3,9 C 4,5 C 6,9 km/h (2 Bft)
19.12.2021 02:40 5,7 C 8,7 C 5,2 C 5,6 C 5,4 C 0,0 C 89 % 94 % 1029,8 hPa 0,0 l/m 5,1 km/h (1 Bft) S 180 0 min 4,0 C 4,5 C 5,5 km/h (1 Bft)
19.12.2021 02:45 5,7 C 8,7 C 5,2 C 5,6 C 5,5 C 0,0 C 89 % 94 % 1029,8 hPa 0,0 l/m 4,8 km/h (1 Bft) SW 225 0 min 4,0 C 4,7 C 4,0 km/h (1 Bft)
19.12.2021 02:50 5,7 C 8,7 C 5,2 C 5,6 C 5,5 C 0,0 C 89 % 94 % 1029,4 hPa 0,0 l/m 4,8 km/h (1 Bft) SW 225 0 min 4,0 C 4,7 C 4,3 km/h (1 Bft)
19.12.2021 02:55 5,7 C 8,7 C 5,1 C 5,6 C 5,4 C 0,0 C 89 % 94 % 1029,4 hPa 0,0 l/m 5,0 km/h (1 Bft) S 180 0 min 4,0 C 4,5 C 6,0 km/h (2 Bft)
19.12.2021 03:00 5,7 C 8,7 C 5,1 C 5,6 C 5,4 C 0,0 C 89 % 94 % 1029,4 hPa 0,0 l/m 5,0 km/h (1 Bft) SW 225 0 min 4,0 C 4,5 C 5,0 km/h (1 Bft)
19.12.2021 03:05 5,7 C 8,7 C 5,1 C 5,6 C 5,4 C 0,0 C 89 % 94 % 1029,4 hPa 0,0 l/m 5,0 km/h (1 Bft) S 180 0 min 4,0 C 4,5 C 4,7 km/h (1 Bft)
19.12.2021 03:10 5,6 C 8,7 C 5,1 C 5,6 C 5,6 C 0,0 C 89 % 94 % 1029,7 hPa 0,0 l/m 4,7 km/h (1 Bft) SW 225 0 min 3,9 C 4,9 C 6,0 km/h (2 Bft)
19.12.2021 03:15 5,6 C 8,7 C 5,2 C 5,5 C 5,4 C 0,0 C 89 % 94 % 1029,7 hPa 0,0 l/m 5,1 km/h (1 Bft) SW 225 0 min 3,9 C 4,5 C 4,8 km/h (1 Bft)
19.12.2021 03:20 5,6 C 8,7 C 5,2 C 5,5 C 5,4 C 0,0 C 89 % 94 % 1029,7 hPa 0,0 l/m 5,1 km/h (1 Bft) SW 225 0 min 3,9 C 4,5 C 5,1 km/h (1 Bft)
19.12.2021 03:25 5,6 C 8,7 C 5,1 C 5,7 C 5,7 C 0,1 C 89 % 94 % 1029,7 hPa 0,0 l/m 4,5 km/h (1 Bft) SW 225 0 min 3,9 C 5,7 C 7,1 km/h (2 Bft)
19.12.2021 03:30 5,7 C 8,7 C 5,1 C 5,6 C 5,4 C 0,0 C 89 % 94 % 1028,6 hPa 0,0 l/m 5,1 km/h (1 Bft) SW 225 0 min 4,0 C 4,5 C 6,4 km/h (2 Bft)
19.12.2021 03:35 5,7 C 8,7 C 5,2 C 5,5 C 5,1 C 0,0 C 89 % 94 % 1028,6 hPa 0,0 l/m 6,0 km/h (2 Bft) W-SW 247 0 min 4,0 C 3,8 C 6,0 km/h (2 Bft)
19.12.2021 03:40 5,7 C 8,7 C 5,2 C 5,6 C 5,3 C 0,0 C 89 % 94 % 1028,6 hPa 0,0 l/m 5,5 km/h (1 Bft) SW 225 0 min 4,0 C 4,2 C 4,5 km/h (1 Bft)
19.12.2021 03:45 5,9 C 8,7 C 5,2 C 5,7 C 5,4 C 0,0 C 89 % 94 % 1028,6 hPa 0,0 l/m 5,3 km/h (1 Bft) SW 225 0 min 4,2 C 4,4 C 8,0 km/h (2 Bft)
19.12.2021 03:50 5,8 C 8,6 C 5,2 C 5,6 C 5,2 C 0,0 C 89 % 94 % 1028,3 hPa 0,0 l/m 5,8 km/h (2 Bft) W-SW 247 0 min 4,1 C 4,0 C 7,1 km/h (2 Bft)
19.12.2021 03:55 5,9 C 8,6 C 5,2 C 5,7 C 5,2 C 0,0 C 89 % 94 % 1028,3 hPa 0,0 l/m 6,1 km/h (2 Bft) SW 225 0 min 4,2 C 3,9 C 7,6 km/h (2 Bft)
19.12.2021 04:00 5,9 C 8,6 C 5,2 C 5,7 C 5,2 C 0,0 C 89 % 94 % 1028,3 hPa 0,0 l/m 6,0 km/h (2 Bft) SW 225 0 min 4,2 C 4,0 C 6,1 km/h (2 Bft)
19.12.2021 04:05 5,9 C 8,6 C 5,2 C 5,7 C 5,2 C 0,0 C 88 % 94 % 1028,3 hPa 0,0 l/m 6,1 km/h (2 Bft) SW 225 0 min 4,1 C 3,9 C 7,1 km/h (2 Bft)
19.12.2021 04:10 5,9 C 8,6 C 5,3 C 5,6 C 5,1 C 0,0 C 88 % 94 % 1028,1 hPa 0,0 l/m 6,6 km/h (2 Bft) SW 225 0 min 4,1 C 3,6 C 10,1 km/h (2 Bft)
19.12.2021 04:15 6,0 C 8,6 C 5,3 C 5,7 C 5,1 C 0,0 C 88 % 93 % 1028,1 hPa 0,0 l/m 6,6 km/h (2 Bft) SW 225 0 min 4,2 C 3,6 C 12,2 km/h (2 Bft)
19.12.2021 04:20 6,1 C 8,6 C 5,3 C 5,8 C 5,2 C 0,0 C 88 % 93 % 1028,1 hPa 0,0 l/m 6,4 km/h (2 Bft) S-SW 202 0 min 4,3 C 3,8 C 9,3 km/h (2 Bft)
19.12.2021 04:25 6,1 C 8,6 C 5,3 C 5,7 C 5,0 C 0,0 C 88 % 93 % 1028,1 hPa 0,0 l/m 6,9 km/h (2 Bft) S-SW 202 0 min 4,3 C 3,4 C 15,1 km/h (3 Bft)
19.12.2021 04:30 6,0 C 8,6 C 5,3 C 5,8 C 4,8 C 0,0 C 88 % 93 % 1027,9 hPa 0,0 l/m 7,7 km/h (2 Bft) SW 225 0 min 4,2 C 3,0 C 11,7 km/h (2 Bft)
19.12.2021 04:35 6,0 C 8,5 C 5,3 C 5,8 C 4,7 C 0,0 C 88 % 93 % 1027,9 hPa 0,0 l/m 8,0 km/h (2 Bft) W-SW 247 0 min 4,2 C 2,8 C 8,5 km/h (2 Bft)
19.12.2021 04:40 6,0 C 8,5 C 5,3 C 5,8 C 4,8 C 0,0 C 88 % 93 % 1027,9 hPa 0,0 l/m 7,9 km/h (2 Bft) W-SW 247 0 min 4,2 C 2,9 C 7,7 km/h (2 Bft)
19.12.2021 04:45 6,1 C 8,5 C 5,3 C 5,7 C 4,8 C 0,0 C 88 % 93 % 1027,9 hPa 0,0 l/m 7,9 km/h (2 Bft) SW 225 0 min 4,3 C 2,9 C 17,7 km/h (3 Bft)
19.12.2021 04:50 6,1 C 8,5 C 5,3 C 5,8 C 4,6 C 0,0 C 87 % 93 % 1028,1 hPa 0,0 l/m 9,0 km/h (2 Bft) SW 225 0 min 4,1 C 2,4 C 7,9 km/h (2 Bft)
19.12.2021 04:55 6,0 C 8,5 C 5,3 C 5,5 C 4,6 C 0,0 C 87 % 93 % 1028,1 hPa 0,0 l/m 8,9 km/h (2 Bft) SW 225 0 min 4,0 C 2,4 C 7,2 km/h (2 Bft)
19.12.2021 05:00 6,0 C 8,5 C 5,3 C 5,5 C 4,6 C 0,0 C 87 % 93 % 1028,1 hPa 0,0 l/m 9,0 km/h (2 Bft) W-SW 247 0 min 4,0 C 2,4 C 12,4 km/h (3 Bft)
19.12.2021 05:05 6,0 C 8,4 C 5,3 C 5,5 C 4,6 C 0,0 C 87 % 92 % 1028,1 hPa 0,0 l/m 8,9 km/h (2 Bft) W-SW 247 0 min 4,0 C 2,4 C 19,3 km/h (3 Bft)
19.12.2021 05:10 6,0 C 8,4 C 5,2 C 5,7 C 4,7 C 0,0 C 87 % 92 % 1027,4 hPa 0,0 l/m 8,5 km/h (2 Bft) SW 225 0 min 4,0 C 2,7 C 10,1 km/h (2 Bft)
19.12.2021 05:15 6,0 C 8,4 C 5,2 C 5,6 C 4,7 C 0,0 C 87 % 92 % 1027,4 hPa 0,0 l/m 8,2 km/h (2 Bft) SW 225 0 min 4,0 C 2,7 C 7,7 km/h (2 Bft)
19.12.2021 05:20 6,0 C 8,4 C 5,2 C 5,6 C 4,7 C 0,0 C 87 % 92 % 1027,4 hPa 0,0 l/m 8,2 km/h (2 Bft) W-SW 247 0 min 4,0 C 2,7 C 7,1 km/h (2 Bft)
19.12.2021 05:25 5,9 C 8,4 C 5,2 C 5,5 C 4,7 C 0,0 C 86 % 92 % 1027,4 hPa 0,0 l/m 8,2 km/h (2 Bft) W-SW 247 0 min 3,7 C 2,7 C 15,9 km/h (3 Bft)
19.12.2021 05:30 5,9 C 8,3 C 5,2 C 5,7 C 4,5 C 0,0 C 86 % 92 % 1026,8 hPa 0,0 l/m 9,2 km/h (2 Bft) W 270 0 min 3,7 C 2,2 C 10,0 km/h (2 Bft)
19.12.2021 05:35 5,9 C 8,3 C 5,2 C 5,6 C 4,3 C 0,0 C 86 % 92 % 1026,8 hPa 0,0 l/m 10,3 km/h (2 Bft) SW 225 0 min 3,7 C 1,8 C 7,2 km/h (2 Bft)
19.12.2021 05:40 5,9 C 8,3 C 5,2 C 5,4 C 4,3 C 0,0 C 86 % 91 % 1026,8 hPa 0,0 l/m 9,5 km/h (2 Bft) S-SW 202 0 min 3,7 C 1,9 C 10,1 km/h (2 Bft)
19.12.2021 05:45 5,9 C 8,3 C 5,2 C 5,6 C 4,4 C 0,0 C 86 % 91 % 1026,8 hPa 0,0 l/m 8,9 km/h (2 Bft) SW 225 0 min 3,7 C 2,2 C 20,9 km/h (4 Bft)
19.12.2021 05:50 5,8 C 8,3 C 5,1 C 5,6 C 4,6 C 0,0 C 86 % 92 % 1026,8 hPa 0,0 l/m 8,4 km/h (2 Bft) SW 225 0 min 3,6 C 2,6 C 9,3 km/h (2 Bft)
19.12.2021 05:55 5,9 C 8,3 C 5,1 C 5,6 C 4,5 C 0,0 C 86 % 91 % 1026,8 hPa 0,0 l/m 8,4 km/h (2 Bft) SW 225 0 min 3,7 C 2,4 C 10,0 km/h (2 Bft)
19.12.2021 06:00 5,9 C 8,3 C 5,1 C 5,6 C 4,4 C 0,0 C 86 % 91 % 1026,8 hPa 0,0 l/m 8,7 km/h (2 Bft) SW 225 0 min 3,7 C 2,2 C 12,6 km/h (3 Bft)
19.12.2021 06:05 5,8 C 8,1 C 5,1 C 5,5 C 4,3 C 0,0 C 86 % 91 % 1026,8 hPa 0,0 l/m 9,0 km/h (2 Bft) W-SW 247 0 min 3,6 C 2,1 C 21,9 km/h (4 Bft)
19.12.2021 06:10 5,9 C 8,1 C 5,1 C 5,4 C 4,3 C 0,0 C 86 % 91 % 1026,4 hPa 0,0 l/m 9,2 km/h (2 Bft) W 270 0 min 3,7 C 2,0 C 13,2 km/h (3 Bft)
19.12.2021 06:15 5,9 C 8,1 C 5,1 C 5,4 C 4,3 C 0,0 C 86 % 91 % 1026,4 hPa 0,0 l/m 9,2 km/h (2 Bft) W-SW 247 0 min 3,7 C 2,0 C 11,3 km/h (2 Bft)
19.12.2021 06:20 5,9 C 8,1 C 5,1 C 5,4 C 4,3 C 0,0 C 86 % 91 % 1026,4 hPa 0,0 l/m 9,2 km/h (2 Bft) W-SW 247 0 min 3,7 C 2,0 C 10,8 km/h (2 Bft)
19.12.2021 06:25 5,7 C 8,1 C 5,1 C 5,5 C 4,5 C 0,0 C 86 % 91 % 1026,4 hPa 0,0 l/m 8,4 km/h (2 Bft) NW 315 0 min 3,5 C 2,4 C 12,1 km/h (2 Bft)
19.12.2021 06:30 5,7 C 8,1 C 5,1 C 5,5 C 4,6 C 0,0 C 86 % 91 % 1027,0 hPa 0,0 l/m 7,9 km/h (2 Bft) S 180 0 min 3,5 C 2,7 C 6,6 km/h (2 Bft)
19.12.2021 06:35 5,7 C 8,1 C 5,0 C 5,5 C 4,4 C 0,0 C 86 % 91 % 1027,0 hPa 0,0 l/m 8,5 km/h (2 Bft) W-SW 247 0 min 3,5 C 2,3 C 11,4 km/h (2 Bft)
19.12.2021 06:40 5,7 C 8,1 C 5,0 C 5,5 C 4,3 C 0,0 C 86 % 91 % 1027,0 hPa 0,0 l/m 9,3 km/h (2 Bft) W-SW 247 0 min 3,5 C 2,0 C 12,2 km/h (2 Bft)
19.12.2021 06:45 5,7 C 8,1 C 5,0 C 5,4 C 4,4 C 0,0 C 86 % 91 % 1027,0 hPa 0,0 l/m 7,9 km/h (2 Bft) SW 225 0 min 3,5 C 2,5 C 5,1 km/h (1 Bft)
19.12.2021 06:50 5,6 C 8,1 C 5,0 C 5,2 C 4,4 C 0,0 C 86 % 91 % 1027,0 hPa 0,0 l/m 7,9 km/h (2 Bft) SW 225 0 min 3,4 C 2,5 C 12,7 km/h (3 Bft)
19.12.2021 06:55 5,6 C 8,1 C 5,0 C 5,2 C 4,4 C 0,0 C 86 % 91 % 1027,0 hPa 0,0 l/m 8,2 km/h (2 Bft) SW 225 0 min 3,4 C 2,4 C 8,4 km/h (2 Bft)
19.12.2021 07:00 5,6 C 8,1 C 4,9 C 5,2 C 4,4 C 0,0 C 86 % 91 % 1027,0 hPa 0,0 l/m 7,9 km/h (2 Bft) S-SW 202 0 min 3,4 C 2,5 C 7,9 km/h (2 Bft)
19.12.2021 07:05 5,7 C 8,1 C 4,9 C 5,3 C 4,6 C 0,0 C 86 % 91 % 1027,0 hPa 0,0 l/m 6,8 km/h (2 Bft) S-SW 202 0 min 3,5 C 3,0 C 10,8 km/h (2 Bft)
19.12.2021 07:10 5,6 C 8,1 C 4,9 C 5,3 C 4,6 C 0,0 C 86 % 91 % 1027,0 hPa 0,0 l/m 6,9 km/h (2 Bft) W-SW 247 0 min 3,4 C 3,0 C 9,3 km/h (2 Bft)
19.12.2021 07:15 5,6 C 8,1 C 4,9 C 5,4 C 4,3 C 0,0 C 86 % 91 % 1027,0 hPa 0,0 l/m 8,0 km/h (2 Bft) S-SW 202 0 min 3,4 C 2,3 C 9,7 km/h (2 Bft)
19.12.2021 07:20 5,6 C 8,1 C 4,9 C 5,3 C 4,2 C 0,0 C 86 % 91 % 1027,0 hPa 0,0 l/m 8,7 km/h (2 Bft) S-SW 202 0 min 3,4 C 2,0 C 7,7 km/h (2 Bft)
19.12.2021 07:25 5,5 C 8,1 C 4,9 C 5,1 C 4,4 C 0,0 C 86 % 91 % 1027,0 hPa 0,0 l/m 7,6 km/h (2 Bft) S-SW 202 0 min 3,3 C 2,5 C 11,7 km/h (2 Bft)
19.12.2021 07:30 5,5 C 8,1 C 4,9 C 5,2 C 4,6 C 0,0 C 86 % 91 % 1026,3 hPa 0,0 l/m 6,8 km/h (2 Bft) W-SW 247 0 min 3,3 C 3,0 C 5,5 km/h (1 Bft)
19.12.2021 07:35 5,5 C 8,1 C 4,9 C 5,2 C 4,5 C 0,0 C 86 % 91 % 1026,3 hPa 0,0 l/m 7,2 km/h (2 Bft) NW 315 0 min 3,3 C 2,8 C 9,2 km/h (2 Bft)
19.12.2021 07:40 5,5 C 8,1 C 4,9 C 5,2 C 4,6 C 0,0 C 86 % 91 % 1026,3 hPa 0,0 l/m 7,1 km/h (2 Bft) S 180 0 min 3,3 C 2,9 C 21,2 km/h (4 Bft)
19.12.2021 07:45 5,5 C 8,0 C 4,9 C 5,3 C 4,3 C 0,0 C 86 % 91 % 1026,3 hPa 0,0 l/m 8,0 km/h (2 Bft) W-SW 247 0 min 3,3 C 2,3 C 13,2 km/h (3 Bft)
19.12.2021 07:50 5,5 C 8,1 C 4,9 C 5,3 C 4,2 C 0,0 C 86 % 91 % 1026,6 hPa 0,0 l/m 8,0 km/h (2 Bft) SW 225 0 min 3,3 C 2,2 C 6,4 km/h (2 Bft)
19.12.2021 07:55 5,4 C 8,0 C 4,9 C 5,1 C 4,4 C 0,0 C 86 % 91 % 1026,6 hPa 0,0 l/m 6,9 km/h (2 Bft) S 180 0 min 3,3 C 2,7 C 6,0 km/h (2 Bft)
19.12.2021 08:00 5,4 C 8,0 C 4,8 C 5,1 C 4,6 C 0,0 C 86 % 91 % 1026,6 hPa 0,0 l/m 6,6 km/h (2 Bft) W-SW 247 0 min 3,3 C 3,1 C 7,9 km/h (2 Bft)
19.12.2021 08:05 5,4 C 8,0 C 4,8 C 5,1 C 4,6 C 0,0 C 86 % 91 % 1026,6 hPa 0,0 l/m 6,6 km/h (2 Bft) SW 225 0 min 3,3 C 3,1 C 10,6 km/h (2 Bft)
19.12.2021 08:10 5,5 C 8,0 C 4,9 C 5,1 C 4,4 C 0,0 C 86 % 91 % 1026,8 hPa 0,0 l/m 7,1 km/h (2 Bft) SW 225 0 min 3,3 C 2,7 C 12,6 km/h (3 Bft)
19.12.2021 08:15 5,5 C 8,0 C 4,8 C 5,1 C 4,4 C 0,0 C 86 % 91 % 1026,8 hPa 0,0 l/m 7,1 km/h (2 Bft) SW 225 0 min 3,3 C 2,7 C 7,1 km/h (2 Bft)
19.12.2021 08:20 5,4 C 8,0 C 4,8 C 5,0 C 4,3 C 0,0 C 86 % 91 % 1026,8 hPa 0,0 l/m 7,6 km/h (2 Bft) W 270 0 min 3,3 C 2,4 C 11,7 km/h (2 Bft)
19.12.2021 08:25 5,5 C 8,0 C 4,9 C 5,1 C 4,4 C 0,0 C 87 % 91 % 1026,8 hPa 0,0 l/m 7,1 km/h (2 Bft) SW 225 0 min 3,5 C 2,7 C 7,6 km/h (2 Bft)
19.12.2021 08:30 5,5 C 8,0 C 4,9 C 5,2 C 4,7 C 0,0 C 87 % 91 % 1026,8 hPa 0,0 l/m 6,1 km/h (2 Bft) W 270 0 min 3,5 C 3,3 C 7,1 km/h (2 Bft)
19.12.2021 08:35 5,5 C 8,0 C 4,8 C 5,4 C 5,1 C 0,0 C 87 % 91 % 1026,8 hPa 0,0 l/m 5,1 km/h (1 Bft) SW 225 0 min 3,5 C 4,2 C 14,0 km/h (3 Bft)
19.12.2021 08:40 5,5 C 8,0 C 4,9 C 5,3 C 4,8 C 0,0 C 87 % 91 % 1026,8 hPa 0,0 l/m 5,5 km/h (1 Bft) W-SW 247 0 min 3,5 C 3,7 C 6,9 km/h (2 Bft)
19.12.2021 08:45 5,5 C 8,0 C 4,9 C 5,1 C 4,3 C 0,0 C 87 % 91 % 1026,8 hPa 0,0 l/m 7,1 km/h (2 Bft) SW 225 0 min 3,5 C 2,6 C 8,4 km/h (2 Bft)
19.12.2021 08:50 5,5 C 8,0 C 4,8 C 5,1 C 4,3 C 0,0 C 87 % 91 % 1026,3 hPa 0,0 l/m 6,8 km/h (2 Bft) SW 225 0 min 3,5 C 2,7 C 11,3 km/h (2 Bft)
19.12.2021 08:55 5,5 C 8,0 C 4,8 C 5,1 C 4,3 C 0,0 C 87 % 91 % 1026,3 hPa 0,0 l/m 6,8 km/h (2 Bft) SW 225 0 min 3,5 C 2,7 C 7,9 km/h (2 Bft)
19.12.2021 09:00 5,5 C 8,0 C 4,8 C 5,1 C 4,3 C 0,0 C 87 % 91 % 1026,3 hPa 0,0 l/m 6,8 km/h (2 Bft) W-SW 247 0 min 3,5 C 2,7 C 7,1 km/h (2 Bft)
19.12.2021 09:05 5,5 C 8,0 C 4,9 C 5,1 C 4,2 C 0,0 C 87 % 91 % 1026,3 hPa 0,0 l/m 7,1 km/h (2 Bft) W-SW 247 0 min 3,5 C 2,5 C 7,6 km/h (2 Bft)
19.12.2021 09:10 5,5 C 8,0 C 4,9 C 5,2 C 4,0 C 0,0 C 87 % 91 % 1026,2 hPa 0,0 l/m 7,7 km/h (2 Bft) SW 225 0 min 3,5 C 2,0 C 9,3 km/h (2 Bft)
19.12.2021 09:15 5,4 C 8,0 C 4,9 C 5,0 C 4,1 C 0,0 C 87 % 91 % 1026,2 hPa 0,0 l/m 7,4 km/h (2 Bft) SW 225 0 min 3,4 C 2,2 C 9,2 km/h (2 Bft)
19.12.2021 09:20 5,5 C 8,1 C 4,8 C 5,1 C 4,3 C 0,0 C 87 % 92 % 1026,2 hPa 0,0 l/m 6,6 km/h (2 Bft) W-SW 247 0 min 3,5 C 2,7 C 6,1 km/h (2 Bft)
19.12.2021 09:25 5,5 C 8,1 C 4,8 C 5,2 C 3,9 C 0,0 C 87 % 92 % 1026,2 hPa 0,0 l/m 8,0 km/h (2 Bft) W-SW 247 0 min 3,5 C 1,8 C 9,5 km/h (2 Bft)
19.12.2021 09:30 5,5 C 8,1 C 4,8 C 5,1 C 3,8 C 0,0 C 87 % 92 % 1026,2 hPa 0,0 l/m 8,0 km/h (2 Bft) SW 225 0 min 3,5 C 1,7 C 5,5 km/h (1 Bft)
19.12.2021 09:35 5,5 C 8,1 C 4,8 C 5,0 C 4,1 C 0,0 C 87 % 92 % 1026,2 hPa 0,0 l/m 7,1 km/h (2 Bft) W-SW 247 0 min 3,5 C 2,3 C 7,7 km/h (2 Bft)
19.12.2021 09:40 5,4 C 8,1 C 4,8 C 4,9 C 3,9 C 0,0 C 87 % 92 % 1026,2 hPa 0,0 l/m 7,1 km/h (2 Bft) W-SW 247 0 min 3,4 C 2,1 C 7,7 km/h (2 Bft)
19.12.2021 09:45 5,3 C 8,1 C 4,8 C 4,8 C 3,9 C 0,0 C 87 % 92 % 1026,2 hPa 0,0 l/m 7,1 km/h (2 Bft) SW 225 0 min 3,3 C 2,1 C 10,5 km/h (2 Bft)
19.12.2021 09:50 5,3 C 8,1 C 4,8 C 4,9 C 4,1 C 0,0 C 87 % 92 % 1025,8 hPa 0,0 l/m 6,1 km/h (2 Bft) SW 225 0 min 3,3 C 2,7 C 6,9 km/h (2 Bft)
19.12.2021 09:55 5,3 C 8,1 C 4,7 C 4,9 C 4,1 C 0,0 C 87 % 92 % 1025,8 hPa 0,0 l/m 6,1 km/h (2 Bft) W 270 0 min 3,3 C 2,7 C 8,9 km/h (2 Bft)
19.12.2021 10:00 5,3 C 8,1 C 4,7 C 4,9 C 4,2 C 0,0 C 88 % 92 % 1025,8 hPa 0,0 l/m 6,0 km/h (2 Bft) W-SW 247 0 min 3,5 C 2,8 C 12,9 km/h (3 Bft)
19.12.2021 10:05 5,2 C 8,1 C 4,7 C 4,9 C 4,2 C 0,0 C 88 % 92 % 1025,8 hPa 0,0 l/m 6,0 km/h (2 Bft) W-SW 247 0 min 3,4 C 2,8 C 10,5 km/h (2 Bft)
19.12.2021 10:10 5,3 C 8,1 C 4,7 C 4,8 C 3,9 C 0,0 C 88 % 92 % 1026,2 hPa 0,0 l/m 6,8 km/h (2 Bft) S 180 0 min 3,5 C 2,2 C 8,4 km/h (2 Bft)
19.12.2021 10:15 5,2 C 8,1 C 4,8 C 4,9 C 3,6 C 0,0 C 88 % 92 % 1026,2 hPa 0,0 l/m 7,9 km/h (2 Bft) SW 225 0 min 3,4 C 1,5 C 11,9 km/h (2 Bft)
19.12.2021 10:20 5,2 C 8,1 C 4,8 C 4,7 C 3,7 C 0,0 C 88 % 93 % 1026,2 hPa 0,0 l/m 7,6 km/h (2 Bft) S 180 0 min 3,4 C 1,7 C 10,9 km/h (2 Bft)
19.12.2021 10:25 5,3 C 8,1 C 4,8 C 4,8 C 3,7 C 0,0 C 88 % 93 % 1026,2 hPa 0,0 l/m 7,4 km/h (2 Bft) W-NW 292 0 min 3,5 C 1,8 C 7,9 km/h (2 Bft)
19.12.2021 10:30 5,2 C 8,1 C 4,8 C 4,8 C 3,9 C 0,0 C 88 % 93 % 1025,6 hPa 0,0 l/m 6,6 km/h (2 Bft) SW 225 0 min 3,4 C 2,3 C 12,1 km/h (2 Bft)
19.12.2021 10:35 5,2 C 8,1 C 4,8 C 4,8 C 3,9 C 0,0 C 88 % 93 % 1025,6 hPa 0,0 l/m 6,8 km/h (2 Bft) W-SW 247 0 min 3,4 C 2,2 C 6,8 km/h (2 Bft)
19.12.2021 10:40 5,3 C 8,1 C 4,8 C 5,0 C 3,6 C 0,0 C 88 % 93 % 1025,6 hPa 0,0 l/m 7,7 km/h (2 Bft) W-SW 247 0 min 3,5 C 1,6 C 7,6 km/h (2 Bft)
19.12.2021 10:45 5,2 C 8,1 C 4,8 C 4,7 C 3,8 C 0,0 C 88 % 93 % 1025,6 hPa 0,0 l/m 7,2 km/h (2 Bft) SW 225 0 min 3,4 C 2,0 C 9,0 km/h (2 Bft)
19.12.2021 10:50 5,3 C 8,1 C 4,8 C 4,8 C 3,8 C 0,0 C 88 % 93 % 1025,2 hPa 0,0 l/m 7,7 km/h (2 Bft) W-SW 247 0 min 3,5 C 1,8 C 5,8 km/h (2 Bft)
19.12.2021 10:55 5,3 C 8,1 C 4,8 C 4,8 C 3,9 C 0,0 C 88 % 93 % 1025,2 hPa 0,0 l/m 7,2 km/h (2 Bft) SW 225 0 min 3,5 C 2,1 C 9,2 km/h (2 Bft)
19.12.2021 11:00 5,3 C 8,1 C 4,8 C 5,0 C 4,3 C 0,0 C 88 % 93 % 1025,2 hPa 0,0 l/m 5,8 km/h (2 Bft) W-SW 247 0 min 3,5 C 3,0 C 4,7 km/h (1 Bft)
19.12.2021 11:05 5,3 C 8,1 C 4,9 C 5,0 C 4,3 C 0,0 C 88 % 93 % 1025,2 hPa 0,0 l/m 6,0 km/h (2 Bft) SW 225 0 min 3,5 C 2,9 C 6,4 km/h (2 Bft)
19.12.2021 11:10 5,3 C 8,1 C 4,9 C 4,9 C 4,0 C 0,0 C 88 % 93 % 1025,2 hPa 0,0 l/m 6,9 km/h (2 Bft) SW 225 0 min 3,5 C 2,3 C 8,5 km/h (2 Bft)
19.12.2021 11:15 5,4 C 8,1 C 4,9 C 5,0 C 4,1 C 0,0 C 88 % 93 % 1025,2 hPa 0,0 l/m 7,2 km/h (2 Bft) SW 225 0 min 3,6 C 2,3 C 8,7 km/h (2 Bft)
19.12.2021 11:20 5,4 C 8,1 C 4,9 C 5,0 C 4,1 C 0,0 C 88 % 93 % 1025,2 hPa 0,0 l/m 7,4 km/h (2 Bft) SW 225 0 min 3,6 C 2,2 C 11,9 km/h (2 Bft)
19.12.2021 11:25 5,5 C 8,1 C 4,9 C 5,0 C 4,1 C 0,0 C 88 % 92 % 1025,2 hPa 0,0 l/m 7,4 km/h (2 Bft) SW 225 0 min 3,7 C 2,2 C 8,2 km/h (2 Bft)
19.12.2021 11:30 5,4 C 8,1 C 4,9 C 5,0 C 4,1 C 0,0 C 88 % 92 % 1024,5 hPa 0,0 l/m 7,9 km/h (2 Bft) SW 225 0 min 3,6 C 2,1 C 8,7 km/h (2 Bft)
19.12.2021 11:35 5,5 C 8,1 C 5,0 C 5,2 C 4,2 C 0,0 C 88 % 92 % 1024,5 hPa 0,0 l/m 8,0 km/h (2 Bft) SW 225 0 min 3,7 C 2,2 C 10,8 km/h (2 Bft)
19.12.2021 11:40 5,5 C 8,0 C 5,0 C 5,3 C 4,3 C 0,0 C 88 % 92 % 1024,5 hPa 0,0 l/m 8,0 km/h (2 Bft) W-SW 247 0 min 3,7 C 2,3 C 7,9 km/h (2 Bft)
19.12.2021 11:45 5,6 C 8,0 C 5,1 C 5,2 C 4,3 C 0,0 C 88 % 92 % 1024,5 hPa 0,0 l/m 8,4 km/h (2 Bft) S 180 0 min 3,8 C 2,2 C 15,4 km/h (3 Bft)
19.12.2021 11:50 5,6 C 8,0 C 5,1 C 5,2 C 4,3 C 0,0 C 88 % 92 % 1024,3 hPa 0,0 l/m 8,5 km/h (2 Bft) SW 225 0 min 3,8 C 2,2 C 7,9 km/h (2 Bft)
19.12.2021 11:55 5,6 C 8,0 C 5,1 C 5,4 C 4,4 C 0,0 C 88 % 92 % 1024,3 hPa 0,0 l/m 8,7 km/h (2 Bft) S-SW 202 0 min 3,8 C 2,2 C 11,3 km/h (2 Bft)
19.12.2021 12:00 5,6 C 8,0 C 5,1 C 5,4 C 4,6 C 0,0 C 87 % 92 % 1024,3 hPa 0,0 l/m 7,7 km/h (2 Bft) W-SW 247 0 min 3,6 C 2,7 C 12,9 km/h (3 Bft)
19.12.2021 12:05 5,6 C 8,0 C 5,1 C 5,3 C 4,6 C 0,0 C 87 % 91 % 1024,3 hPa 0,0 l/m 7,7 km/h (2 Bft) SW 225 0 min 3,6 C 2,7 C 8,4 km/h (2 Bft)
19.12.2021 12:10 5,6 C 8,0 C 5,1 C 5,3 C 4,7 C 0,0 C 87 % 91 % 1023,9 hPa 0,0 l/m 7,4 km/h (2 Bft) W-SW 247 0 min 3,6 C 2,9 C 7,9 km/h (2 Bft)
19.12.2021 12:15 5,7 C 8,0 C 5,1 C 5,4 C 4,9 C 0,0 C 87 % 91 % 1023,9 hPa 0,0 l/m 6,6 km/h (2 Bft) SW 225 0 min 3,7 C 3,4 C 5,5 km/h (1 Bft)
19.12.2021 12:20 5,6 C 8,0 C 5,1 C 5,4 C 5,0 C 0,0 C 87 % 91 % 1023,9 hPa 0,0 l/m 6,3 km/h (2 Bft) SW 225 0 min 3,6 C 3,6 C 7,2 km/h (2 Bft)
19.12.2021 12:25 5,6 C 8,0 C 5,1 C 5,4 C 5,1 C 0,0 C 87 % 91 % 1023,9 hPa 0,0 l/m 6,1 km/h (2 Bft) W-SW 247 0 min 3,6 C 3,8 C 12,7 km/h (3 Bft)
19.12.2021 12:30 5,7 C 8,0 C 5,1 C 5,4 C 4,8 C 0,0 C 87 % 91 % 1024,1 hPa 0,0 l/m 6,9 km/h (2 Bft) SW 225 0 min 3,7 C 3,2 C 16,1 km/h (3 Bft)
19.12.2021 12:35 5,6 C 8,0 C 5,1 C 5,5 C 4,6 C 0,0 C 87 % 91 % 1024,1 hPa 0,0 l/m 7,7 km/h (2 Bft) SW 225 0 min 3,6 C 2,7 C 9,8 km/h (2 Bft)
19.12.2021 12:40 5,6 C 8,0 C 5,2 C 5,3 C 4,6 C 0,0 C 87 % 91 % 1024,1 hPa 0,0 l/m 7,9 km/h (2 Bft) W-SW 247 0 min 3,6 C 2,7 C 8,2 km/h (2 Bft)
19.12.2021 12:45 5,7 C 8,0 C 5,1 C 5,4 C 4,7 C 0,0 C 87 % 91 % 1024,1 hPa 0,0 l/m 7,4 km/h (2 Bft) SW 225 0 min 3,7 C 2,9 C 6,3 km/h (2 Bft)
19.12.2021 12:50 5,7 C 8,0 C 5,1 C 5,4 C 4,8 C 0,0 C 87 % 91 % 1023,9 hPa 0,0 l/m 7,1 km/h (2 Bft) SW 225 0 min 3,7 C 3,1 C 13,4 km/h (3 Bft)
19.12.2021 12:55 5,7 C 8,0 C 5,2 C 5,5 C 5,1 C 0,0 C 86 % 91 % 1023,9 hPa 0,0 l/m 6,4 km/h (2 Bft) SW 225 0 min 3,5 C 3,7 C 7,1 km/h (2 Bft)
19.12.2021 13:00 5,7 C 8,0 C 5,2 C 5,5 C 5,2 C 0,0 C 86 % 91 % 1023,9 hPa 0,0 l/m 5,6 km/h (1 Bft) W-SW 247 0 min 3,5 C 4,1 C 3,9 km/h (1 Bft)
19.12.2021 13:05 5,7 C 8,0 C 5,1 C 5,6 C 5,4 C 0,0 C 86 % 91 % 1023,9 hPa 0,0 l/m 5,1 km/h (1 Bft) W-SW 247 0 min 3,5 C 4,5 C 7,9 km/h (2 Bft)
19.12.2021 13:10 5,7 C 8,0 C 5,2 C 5,6 C 5,3 C 0,0 C 86 % 91 % 1023,6 hPa 0,0 l/m 5,3 km/h (1 Bft) S 180 0 min 3,5 C 4,3 C 3,9 km/h (1 Bft)
19.12.2021 13:15 5,7 C 8,0 C 5,2 C 5,6 C 5,3 C 0,0 C 86 % 91 % 1023,6 hPa 0,0 l/m 5,3 km/h (1 Bft) S-SW 202 0 min 3,5 C 4,3 C 6,3 km/h (2 Bft)
19.12.2021 13:20 5,7 C 8,0 C 5,2 C 5,6 C 5,4 C 0,0 C 86 % 91 % 1023,6 hPa 0,0 l/m 5,1 km/h (1 Bft) SW 225 0 min 3,5 C 4,5 C 7,1 km/h (2 Bft)
19.12.2021 13:25 5,7 C 8,0 C 5,2 C 5,5 C 5,1 C 0,0 C 86 % 91 % 1023,6 hPa 0,0 l/m 6,1 km/h (2 Bft) S-SW 202 0 min 3,5 C 3,8 C 9,2 km/h (2 Bft)
19.12.2021 13:30 5,7 C 8,0 C 5,2 C 5,4 C 4,7 C 0,0 C 86 % 91 % 1023,3 hPa 0,0 l/m 7,6 km/h (2 Bft) W-SW 247 0 min 3,5 C 2,9 C 14,6 km/h (3 Bft)
19.12.2021 13:35 5,7 C 8,0 C 5,2 C 5,4 C 4,7 C 0,0 C 86 % 91 % 1023,3 hPa 0,0 l/m 7,4 km/h (2 Bft) SW 225 0 min 3,5 C 2,9 C 3,5 km/h (1 Bft)
19.12.2021 13:40 5,7 C 8,0 C 5,2 C 5,5 C 5,2 C 0,0 C 86 % 91 % 1023,3 hPa 0,0 l/m 5,8 km/h (2 Bft) SW 225 0 min 3,5 C 4,0 C 6,0 km/h (2 Bft)
19.12.2021 13:45 5,7 C 8,0 C 5,2 C 5,6 C 5,3 C 0,0 C 86 % 91 % 1023,3 hPa 0,0 l/m 5,3 km/h (1 Bft) W-SW 247 0 min 3,5 C 4,3 C 7,6 km/h (2 Bft)
19.12.2021 13:50 5,9 C 8,0 C 5,3 C 5,6 C 4,9 C 0,0 C 86 % 91 % 1023,4 hPa 0,0 l/m 6,4 km/h (2 Bft) SW 225 0 min 3,7 C 3,5 C 10,6 km/h (2 Bft)
19.12.2021 13:55 5,9 C 8,0 C 5,3 C 5,5 C 4,8 C 0,0 C 86 % 91 % 1023,4 hPa 0,0 l/m 6,9 km/h (2 Bft) W-SW 247 0 min 3,7 C 3,2 C 7,1 km/h (2 Bft)
19.12.2021 14:00 5,9 C 8,0 C 5,3 C 5,5 C 4,8 C 0,0 C 86 % 91 % 1023,4 hPa 0,0 l/m 6,9 km/h (2 Bft) SW 225 0 min 3,7 C 3,2 C 10,5 km/h (2 Bft)
19.12.2021 14:05 5,9 C 8,0 C 5,2 C 5,7 C 5,2 C 0,0 C 86 % 91 % 1023,4 hPa 0,0 l/m 5,8 km/h (2 Bft) S 180 0 min 3,7 C 4,0 C 6,8 km/h (2 Bft)
19.12.2021 14:10 5,8 C 8,0 C 5,2 C 5,6 C 5,1 C 0,0 C 86 % 91 % 1023,4 hPa 0,0 l/m 6,0 km/h (2 Bft) W-SW 247 0 min 3,6 C 3,8 C 11,6 km/h (2 Bft)
19.12.2021 14:13 5,8 C 8,0 C 5,2 C 5,6 C 5,1 C 0,0 C 86 % 91 % 1023,4 hPa 0,0 l/m 5,8 km/h (2 Bft) W-SW 247 0 min 3,6 C 3,9 C 6,3 km/h (2 Bft)
19.12.2021 14:18 5,9 C 8,0 C 5,2 C 5,6 C 4,9 C 0,0 C 86 % 91 % 1023,4 hPa 0,0 l/m 6,0 km/h (2 Bft) SW 225 0 min 3,7 C 3,6 C 10,5 km/h (2 Bft)
19.12.2021 14:23 5,8 C 8,0 C 5,3 C 5,5 C 4,8 C 0,0 C 86 % 91 % 1023,4 hPa 0,0 l/m 6,3 km/h (2 Bft) SW 225 0 min 3,6 C 3,4 C 10,8 km/h (2 Bft)
19.12.2021 14:28 5,9 C 8,0 C 5,2 C 5,5 C 4,6 C 0,0 C 86 % 91 % 1023,2 hPa 0,0 l/m 6,9 km/h (2 Bft) W-SW 247 0 min 3,7 C 3,0 C 7,9 km/h (2 Bft)
19.12.2021 14:33 5,9 C 8,0 C 5,2 C 5,6 C 5,0 C 0,0 C 86 % 91 % 1023,2 hPa 0,0 l/m 5,6 km/h (1 Bft) W 270 0 min 3,7 C 3,9 C 6,4 km/h (2 Bft)
19.12.2021 14:38 5,7 C 8,0 C 5,2 C 5,4 C 4,9 C 0,0 C 87 % 91 % 1023,2 hPa 0,0 l/m 5,3 km/h (1 Bft) W-SW 247 0 min 3,7 C 3,9 C 10,3 km/h (2 Bft)
19.12.2021 14:43 5,7 C 8,0 C 5,2 C 5,3 C 4,6 C 0,0 C 87 % 91 % 1023,2 hPa 0,0 l/m 6,1 km/h (2 Bft) W-SW 247 0 min 3,7 C 3,2 C 5,8 km/h (2 Bft)
19.12.2021 14:48 5,7 C 8,0 C 5,2 C 5,3 C 4,6 C 0,0 C 87 % 91 % 1022,8 hPa 0,0 l/m 6,0 km/h (2 Bft) SW 225 0 min 3,7 C 3,3 C 4,7 km/h (1 Bft)
19.12.2021 14:53 5,6 C 8,0 C 5,1 C 5,4 C 5,1 C 0,0 C 87 % 91 % 1022,8 hPa 0,0 l/m 4,7 km/h (1 Bft) SW 225 0 min 3,6 C 4,3 C 3,4 km/h (1 Bft)
19.12.2021 14:58 5,6 C 8,0 C 5,1 C 5,4 C 4,9 C 0,0 C 87 % 91 % 1022,8 hPa 0,0 l/m 4,8 km/h (1 Bft) W-SW 247 0 min 3,6 C 4,0 C 6,0 km/h (2 Bft)
19.12.2021 15:03 5,6 C 8,0 C 5,1 C 5,4 C 5,1 C 0,0 C 87 % 91 % 1022,8 hPa 0,0 l/m 4,5 km/h (1 Bft) NW 315 0 min 3,6 C 5,1 C 0,0 km/h (0 Bft)
19.12.2021 15:08 5,6 C 8,0 C 5,1 C 5,5 C 5,2 C 0,0 C 87 % 92 % 1022,6 hPa 0,0 l/m 4,3 km/h (1 Bft) W-SW 247 0 min 3,6 C 5,2 C 6,3 km/h (2 Bft)
19.12.2021 15:13 5,6 C 8,0 C 5,0 C 5,4 C 5,1 C 0,0 C 87 % 92 % 1022,6 hPa 0,0 l/m 4,2 km/h (1 Bft) SW 225 0 min 3,6 C 5,1 C 7,7 km/h (2 Bft)
19.12.2021 15:18 5,6 C 8,0 C 5,0 C 5,3 C 4,6 C 0,0 C 87 % 92 % 1022,6 hPa 0,0 l/m 5,5 km/h (1 Bft) W-SW 247 0 min 3,6 C 3,4 C 8,5 km/h (2 Bft)
19.12.2021 15:23 5,6 C 8,0 C 5,0 C 5,2 C 4,3 C 0,0 C 87 % 92 % 1022,6 hPa 0,0 l/m 6,4 km/h (2 Bft) SW 225 0 min 3,6 C 2,8 C 9,2 km/h (2 Bft)
19.12.2021 15:28 5,6 C 8,1 C 5,0 C 5,2 C 4,4 C 0,0 C 88 % 92 % 1022,4 hPa 0,0 l/m 6,1 km/h (2 Bft) SW 225 0 min 3,8 C 3,0 C 6,8 km/h (2 Bft)
19.12.2021 15:33 5,6 C 8,1 C 4,9 C 5,2 C 4,4 C 0,0 C 88 % 92 % 1022,4 hPa 0,0 l/m 5,5 km/h (1 Bft) SW 225 0 min 3,8 C 3,2 C 3,9 km/h (1 Bft)
19.12.2021 15:38 5,6 C 8,1 C 4,9 C 5,2 C 4,4 C 0,0 C 88 % 92 % 1022,4 hPa 0,0 l/m 5,6 km/h (1 Bft) SW 225 0 min 3,8 C 3,2 C 11,1 km/h (2 Bft)
19.12.2021 15:43 5,6 C 8,1 C 4,9 C 5,2 C 4,3 C 0,0 C 88 % 92 % 1022,4 hPa 0,0 l/m 6,0 km/h (2 Bft) SW 225 0 min 3,8 C 2,9 C 4,8 km/h (1 Bft)
19.12.2021 15:48 5,5 C 8,1 C 4,9 C 5,1 C 4,3 C 0,0 C 88 % 92 % 1022,4 hPa 0,0 l/m 6,0 km/h (2 Bft) W-SW 247 0 min 3,7 C 2,9 C 8,4 km/h (2 Bft)
19.12.2021 15:53 5,5 C 8,1 C 4,9 C 5,3 C 5,0 C 0,0 C 88 % 93 % 1022,4 hPa 0,0 l/m 4,2 km/h (1 Bft) S 180 0 min 3,7 C 5,0 C 4,0 km/h (1 Bft)
19.12.2021 15:58 5,5 C 8,1 C 4,9 C 5,3 C 4,8 C 0,0 C 88 % 93 % 1022,4 hPa 0,0 l/m 4,5 km/h (1 Bft) W-SW 247 0 min 3,7 C 4,8 C 12,6 km/h (3 Bft)
19.12.2021 16:03 5,4 C 8,3 C 4,8 C 5,1 C 4,4 C 0,0 C 88 % 93 % 1022,4 hPa 0,0 l/m 5,3 km/h (1 Bft) W-SW 247 0 min 3,6 C 3,3 C 3,5 km/h (1 Bft)
19.12.2021 16:08 5,4 C 8,3 C 4,9 C 5,1 C 4,4 C 0,0 C 88 % 93 % 1022,4 hPa 0,0 l/m 5,3 km/h (1 Bft) W-SW 247 0 min 3,6 C 3,3 C 7,2 km/h (2 Bft)
19.12.2021 16:13 5,5 C 8,3 C 4,9 C 5,2 C 4,7 C 0,0 C 88 % 93 % 1022,4 hPa 0,0 l/m 4,7 km/h (1 Bft) W-SW 247 0 min 3,7 C 3,9 C 7,9 km/h (2 Bft)
19.12.2021 16:18 5,4 C 8,3 C 4,9 C 5,1 C 4,4 C 0,0 C 88 % 93 % 1022,4 hPa 0,0 l/m 5,1 km/h (1 Bft) W-SW 247 0 min 3,6 C 3,4 C 5,6 km/h (1 Bft)
19.12.2021 16:23 5,3 C 8,4 C 4,8 C 5,0 C 4,5 C 0,0 C 89 % 93 % 1022,4 hPa 0,0 l/m 5,0 km/h (1 Bft) SW 225 0 min 3,6 C 3,5 C 5,0 km/h (1 Bft)
19.12.2021 16:28 5,3 C 8,4 C 4,8 C 5,1 C 4,7 C 0,0 C 89 % 93 % 1022,4 hPa 0,0 l/m 4,5 km/h (1 Bft) SW 225 0 min 3,6 C 4,7 C 9,5 km/h (2 Bft)
19.12.2021 16:33 5,2 C 8,4 C 4,7 C 5,1 C 4,8 C 0,0 C 89 % 93 % 1022,4 hPa 0,0 l/m 4,3 km/h (1 Bft) S-SW 202 0 min 3,5 C 4,8 C 6,8 km/h (2 Bft)
19.12.2021 16:38 5,2 C 8,4 C 4,7 C 4,9 C 4,4 C 0,0 C 89 % 93 % 1022,4 hPa 0,0 l/m 5,1 km/h (1 Bft) SW 225 0 min 3,5 C 3,4 C 8,2 km/h (2 Bft)
19.12.2021 16:43 5,2 C 8,4 C 4,7 C 4,9 C 4,3 C 0,0 C 89 % 93 % 1022,4 hPa 0,0 l/m 5,6 km/h (1 Bft) SW 225 0 min 3,5 C 3,1 C 6,9 km/h (2 Bft)
19.12.2021 16:48 5,2 C 8,4 C 4,7 C 4,9 C 4,3 C 0,0 C 89 % 93 % 1022,1 hPa 0,7 l/m 5,6 km/h (1 Bft) W 270 0 min 3,5 C 3,1 C 4,8 km/h (1 Bft)
19.12.2021 16:53 5,1 C 8,4 C 4,7 C 4,9 C 4,4 C 0,0 C 89 % 94 % 1022,1 hPa 0,0 l/m 5,3 km/h (1 Bft) W 270 0 min 3,4 C 3,3 C 10,5 km/h (2 Bft)
19.12.2021 16:58 5,1 C 8,5 C 4,7 C 4,8 C 4,2 C 0,0 C 89 % 94 % 1022,1 hPa 0,0 l/m 5,8 km/h (2 Bft) W-SW 247 0 min 3,4 C 2,9 C 9,8 km/h (2 Bft)
19.12.2021 17:03 5,1 C 8,5 C 4,7 C 4,8 C 4,1 C 0,0 C 89 % 94 % 1022,1 hPa 0,0 l/m 6,1 km/h (2 Bft) SW 225 0 min 3,4 C 2,7 C 4,3 km/h (1 Bft)
19.12.2021 17:08 5,1 C 8,5 C 4,7 C 4,8 C 4,2 C 0,0 C 89 % 94 % 1022,3 hPa 0,0 l/m 6,0 km/h (2 Bft) W-SW 247 0 min 3,4 C 2,8 C 2,6 km/h (1 Bft)
19.12.2021 17:13 5,1 C 8,5 C 4,7 C 4,8 C 4,3 C 0,0 C 89 % 94 % 1022,3 hPa 0,0 l/m 5,5 km/h (1 Bft) SW 225 0 min 3,4 C 3,1 C 9,7 km/h (2 Bft)
19.12.2021 17:18 5,1 C 8,5 C 4,7 C 5,0 C 4,7 C 0,0 C 89 % 94 % 1022,3 hPa 0,0 l/m 4,7 km/h (1 Bft) W-SW 247 0 min 3,4 C 3,9 C 4,0 km/h (1 Bft)
19.12.2021 17:23 5,0 C 8,4 C 4,7 C 4,8 C 4,3 C 0,0 C 89 % 94 % 1022,3 hPa 0,0 l/m 5,5 km/h (1 Bft) W-SW 247 0 min 3,3 C 3,1 C 7,1 km/h (2 Bft)
19.12.2021 17:28 5,0 C 8,5 C 4,7 C 4,8 C 4,4 C 0,0 C 89 % 94 % 1022,2 hPa 0,0 l/m 5,1 km/h (1 Bft) W-SW 247 0 min 3,3 C 3,4 C 8,0 km/h (2 Bft)
19.12.2021 17:33 4,9 C 8,5 C 4,7 C 4,9 C 4,8 C 0,0 C 89 % 94 % 1022,2 hPa 0,0 l/m 4,3 km/h (1 Bft) W-SW 247 0 min 3,2 C 4,8 C 5,6 km/h (1 Bft)
19.12.2021 17:38 4,9 C 8,5 C 4,7 C 5,0 C 5,0 C 0,1 C 89 % 94 % 1022,2 hPa 0,0 l/m 3,9 km/h (1 Bft) W-SW 247 0 min 3,2 C 5,0 C 3,9 km/h (1 Bft)
19.12.2021 17:43 4,8 C 8,5 C 4,7 C 4,9 C 4,9 C 0,1 C 88 % 94 % 1022,2 hPa 0,0 l/m 4,0 km/h (1 Bft) W-SW 247 0 min 3,0 C 4,9 C 9,5 km/h (2 Bft)
19.12.2021 17:48 4,8 C 8,5 C 4,7 C 4,9 C 4,9 C 0,1 C 88 % 94 % 1022,6 hPa 0,0 l/m 4,0 km/h (1 Bft) W-SW 247 0 min 3,0 C 4,9 C 8,0 km/h (2 Bft)
19.12.2021 17:53 4,8 C 8,5 C 4,7 C 5,4 C 5,4 C 0,6 C 88 % 94 % 1022,6 hPa 0,0 l/m 2,9 km/h (1 Bft) SW 225 0 min 3,0 C 5,4 C 6,9 km/h (2 Bft)
19.12.2021 17:58 4,8 C 8,5 C 4,7 C 5,2 C 5,2 C 0,4 C 88 % 94 % 1022,6 hPa 0,0 l/m 3,4 km/h (1 Bft) SW 225 0 min 3,0 C 5,2 C 6,8 km/h (2 Bft)
19.12.2021 18:03 4,8 C 8,5 C 4,7 C 4,7 C 4,6 C 0,0 C 88 % 94 % 1022,6 hPa 0,0 l/m 4,8 km/h (1 Bft) W-SW 247 0 min 3,0 C 3,7 C 5,5 km/h (1 Bft)
19.12.2021 18:08 4,9 C 8,5 C 4,7 C 4,8 C 4,6 C 0,0 C 89 % 94 % 1022,3 hPa 0,0 l/m 4,8 km/h (1 Bft) NW 315 0 min 3,2 C 3,7 C 5,5 km/h (1 Bft)
19.12.2021 18:13 4,8 C 8,5 C 4,7 C 5,2 C 5,2 C 0,4 C 88 % 94 % 1022,3 hPa 0,0 l/m 3,5 km/h (1 Bft) NW 315 0 min 3,0 C 5,2 C 0,0 km/h (0 Bft)
19.12.2021 18:18 4,8 C 8,5 C 4,7 C 5,1 C 5,1 C 0,3 C 88 % 94 % 1022,3 hPa 0,0 l/m 3,7 km/h (1 Bft) W 270 0 min 3,0 C 5,1 C 7,2 km/h (2 Bft)
19.12.2021 18:23 4,8 C 8,5 C 4,7 C 4,8 C 4,8 C 0,0 C 88 % 94 % 1022,3 hPa 0,0 l/m 4,3 km/h (1 Bft) SW 225 0 min 3,0 C 4,8 C 8,0 km/h (2 Bft)
19.12.2021 18:28 4,8 C 8,5 C 4,7 C 4,6 C 4,2 C 0,0 C 88 % 94 % 1022,4 hPa 0,0 l/m 5,8 km/h (2 Bft) SW 225 0 min 3,0 C 2,9 C 8,5 km/h (2 Bft)
19.12.2021 18:33 4,8 C 8,5 C 4,7 C 4,8 C 4,7 C 0,0 C 88 % 94 % 1022,4 hPa 0,0 l/m 4,7 km/h (1 Bft) SW 225 0 min 3,0 C 3,9 C 2,6 km/h (1 Bft)
19.12.2021 18:38 4,8 C 8,5 C 4,7 C 5,0 C 5,0 C 0,2 C 88 % 94 % 1022,4 hPa 0,0 l/m 3,9 km/h (1 Bft) W-SW 247 0 min 3,0 C 5,0 C 3,7 km/h (1 Bft)
19.12.2021 18:43 4,8 C 8,5 C 4,7 C 5,4 C 5,4 C 0,6 C 88 % 94 % 1022,4 hPa 0,0 l/m 3,1 km/h (1 Bft) S 180 0 min 3,0 C 5,4 C 1,6 km/h (1 Bft)
19.12.2021 18:48 4,8 C 8,5 C 4,7 C 5,4 C 5,4 C 0,6 C 88 % 94 % 1022,2 hPa 0,0 l/m 2,3 km/h (1 Bft) W-SW 247 0 min 3,0 C 5,4 C 1,6 km/h (1 Bft)
19.12.2021 18:53 4,8 C 8,5 C 4,7 C 5,4 C 5,4 C 0,6 C 88 % 94 % 1022,2 hPa 0,0 l/m 1,4 km/h (1 Bft) W-SW 247 0 min 3,0 C 5,4 C 2,7 km/h (1 Bft)
19.12.2021 18:58 4,8 C 8,5 C 4,7 C 5,3 C 5,3 C 0,5 C 88 % 94 % 1022,2 hPa 0,0 l/m 2,3 km/h (1 Bft) N-NW 337 0 min 3,0 C 5,3 C 0,0 km/h (0 Bft)
19.12.2021 19:03 4,7 C 8,5 C 4,7 C 5,3 C 5,3 C 0,6 C 88 % 94 % 1022,2 hPa 0,0 l/m 2,9 km/h (1 Bft) SW 225 0 min 2,9 C 5,3 C 4,3 km/h (1 Bft)
19.12.2021 19:08 4,7 C 8,5 C 4,7 C 5,3 C 5,3 C 0,6 C 88 % 94 % 1022,2 hPa 0,0 l/m 2,6 km/h (1 Bft) W-SW 247 0 min 2,9 C 5,3 C 0,0 km/h (0 Bft)
19.12.2021 19:13 4,8 C 8,5 C 4,7 C 4,9 C 4,9 C 0,1 C 88 % 94 % 1022,2 hPa 0,0 l/m 3,7 km/h (1 Bft) S-SW 202 0 min 3,0 C 4,9 C 6,3 km/h (2 Bft)
19.12.2021 19:18 4,8 C 8,4 C 4,7 C 4,8 C 4,8 C 0,0 C 88 % 94 % 1022,2 hPa 0,0 l/m 4,2 km/h (1 Bft) SW 225 0 min 3,0 C 4,8 C 12,6 km/h (3 Bft)
19.12.2021 19:23 4,8 C 8,4 C 4,7 C 4,8 C 4,8 C 0,0 C 88 % 94 % 1022,2 hPa 0,0 l/m 4,3 km/h (1 Bft) W 270 0 min 3,0 C 4,8 C 5,3 km/h (1 Bft)
19.12.2021 19:28 4,8 C 8,4 C 4,7 C 4,8 C 4,7 C 0,0 C 88 % 94 % 1022,6 hPa 0,0 l/m 4,5 km/h (1 Bft) SW 225 0 min 3,0 C 4,7 C 4,2 km/h (1 Bft)
19.12.2021 19:33 4,8 C 8,3 C 4,7 C 4,8 C 4,8 C 0,0 C 88 % 94 % 1022,6 hPa 0,0 l/m 4,3 km/h (1 Bft) NW 315 0 min 3,0 C 4,8 C 1,9 km/h (1 Bft)
19.12.2021 19:38 4,9 C 8,3 C 4,7 C 5,2 C 5,2 C 0,3 C 89 % 94 % 1022,6 hPa 0,0 l/m 3,5 km/h (1 Bft) S-SW 202 0 min 3,2 C 5,2 C 3,4 km/h (1 Bft)
19.12.2021 19:43 5,0 C 8,3 C 4,7 C 5,4 C 5,4 C 0,4 C 89 % 94 % 1022,6 hPa 0,0 l/m 3,4 km/h (1 Bft) NW 315 0 min 3,3 C 5,4 C 8,2 km/h (2 Bft)
19.12.2021 19:48 5,1 C 8,3 C 4,8 C 5,0 C 4,9 C 0,0 C 89 % 94 % 1022,2 hPa 0,0 l/m 4,5 km/h (1 Bft) S-SW 202 0 min 3,4 C 4,9 C 4,0 km/h (1 Bft)
19.12.2021 19:53 5,1 C 8,3 C 4,8 C 5,1 C 5,1 C 0,0 C 89 % 94 % 1022,2 hPa 0,0 l/m 4,5 km/h (1 Bft) SW 225 0 min 3,4 C 5,1 C 8,0 km/h (2 Bft)
19.12.2021 19:58 5,1 C 8,3 C 4,7 C 5,0 C 4,9 C 0,0 C 89 % 94 % 1022,2 hPa 0,0 l/m 5,0 km/h (1 Bft) S-SW 202 0 min 3,4 C 4,0 C 11,4 km/h (2 Bft)
19.12.2021 20:03 5,2 C 8,3 C 4,7 C 5,1 C 4,9 C 0,0 C 89 % 94 % 1022,2 hPa 0,0 l/m 4,7 km/h (1 Bft) O 90 0 min 3,5 C 4,1 C 7,4 km/h (2 Bft)
19.12.2021 20:08 5,2 C 8,3 C 4,7 C 5,1 C 5,0 C 0,0 C 89 % 94 % 1022,2 hPa 0,0 l/m 4,3 km/h (1 Bft) N-NO 22 0 min 3,5 C 5,0 C 1,9 km/h (1 Bft)
19.12.2021 20:13 5,3 C 8,3 C 4,7 C 5,2 C 5,0 C 0,0 C 89 % 94 % 1022,2 hPa 0,0 l/m 4,2 km/h (1 Bft) NW 315 0 min 3,6 C 5,0 C 2,7 km/h (1 Bft)
19.12.2021 20:18 5,3 C 8,3 C 4,7 C 5,2 C 5,0 C 0,0 C 89 % 94 % 1022,2 hPa 0,0 l/m 4,2 km/h (1 Bft) SW 225 0 min 3,6 C 5,0 C 9,5 km/h (2 Bft)
19.12.2021 20:23 5,3 C 8,3 C 4,6 C 5,2 C 5,0 C 0,0 C 89 % 94 % 1022,2 hPa 0,0 l/m 3,9 km/h (1 Bft) SW 225 0 min 3,6 C 5,0 C 4,0 km/h (1 Bft)
19.12.2021 20:28 5,3 C 8,3 C 4,6 C 5,2 C 5,0 C 0,0 C 89 % 94 % 1021,8 hPa 0,0 l/m 3,9 km/h (1 Bft) S-SW 202 0 min 3,6 C 5,0 C 5,8 km/h (2 Bft)
19.12.2021 20:33 5,3 C 8,3 C 4,6 C 5,2 C 5,1 C 0,0 C 89 % 94 % 1021,8 hPa 0,0 l/m 3,9 km/h (1 Bft) W 270 0 min 3,6 C 5,1 C 13,2 km/h (3 Bft)
19.12.2021 20:38 5,5 C 8,3 C 4,6 C 5,4 C 5,2 C 0,0 C 89 % 94 % 1021,8 hPa 0,0 l/m 3,7 km/h (1 Bft) W 270 0 min 3,8 C 5,2 C 3,7 km/h (1 Bft)
19.12.2021 20:43 5,5 C 8,3 C 4,5 C 5,5 C 5,4 C 0,0 C 89 % 94 % 1021,8 hPa 0,0 l/m 3,2 km/h (1 Bft) W-SW 247 0 min 3,8 C 5,4 C 4,8 km/h (1 Bft)
19.12.2021 20:48 5,5 C 8,3 C 4,4 C 5,4 C 5,2 C 0,0 C 89 % 94 % 1021,9 hPa 0,0 l/m 3,2 km/h (1 Bft) NO 45 0 min 3,8 C 5,2 C 4,7 km/h (1 Bft)
19.12.2021 20:53 5,3 C 8,3 C 4,2 C 5,2 C 5,0 C 0,0 C 89 % 94 % 1021,9 hPa 0,0 l/m 2,4 km/h (1 Bft) SW 225 0 min 3,6 C 5,0 C 1,9 km/h (1 Bft)
19.12.2021 20:58 5,2 C 8,3 C 4,1 C 5,0 C 4,7 C 0,0 C 89 % 94 % 1021,9 hPa 0,0 l/m 2,6 km/h (1 Bft) W 270 0 min 3,5 C 4,7 C 0,0 km/h (0 Bft)
19.12.2021 21:03 5,3 C 8,3 C 4,0 C 5,0 C 4,5 C 0,0 C 89 % 94 % 1021,9 hPa 0,0 l/m 2,3 km/h (1 Bft) SW 225 0 min 3,6 C 4,5 C 4,3 km/h (1 Bft)
19.12.2021 21:08 5,2 C 8,3 C 3,9 C 4,9 C 4,4 C 0,0 C 88 % 94 % 1022,1 hPa 0,0 l/m 1,8 km/h (1 Bft) S 180 0 min 3,4 C 4,4 C 4,8 km/h (1 Bft)
19.12.2021 21:13 5,0 C 8,3 C 3,8 C 4,7 C 4,2 C 0,0 C 88 % 94 % 1022,1 hPa 0,0 l/m 1,8 km/h (1 Bft) W-SW 247 0 min 3,2 C 4,2 C 2,9 km/h (1 Bft)
19.12.2021 21:18 5,1 C 8,3 C 3,9 C 4,8 C 4,3 C 0,0 C 88 % 94 % 1022,1 hPa 0,0 l/m 2,1 km/h (1 Bft) SW 225 0 min 3,3 C 4,3 C 6,4 km/h (2 Bft)
19.12.2021 21:23 5,1 C 8,3 C 3,9 C 4,8 C 4,3 C 0,0 C 88 % 94 % 1022,1 hPa 0,0 l/m 2,1 km/h (1 Bft) N-NW 337 0 min 3,3 C 4,3 C 4,0 km/h (1 Bft)
19.12.2021 21:28 5,1 C 8,3 C 3,9 C 4,9 C 4,4 C 0,0 C 89 % 94 % 1022,6 hPa 0,0 l/m 2,1 km/h (1 Bft) N-NW 337 0 min 3,4 C 4,4 C 4,5 km/h (1 Bft)
19.12.2021 21:33 5,1 C 8,2 C 4,1 C 5,0 C 4,7 C 0,0 C 89 % 94 % 1022,6 hPa 0,0 l/m 3,1 km/h (1 Bft) W-SW 247 0 min 3,4 C 4,7 C 7,4 km/h (2 Bft)
19.12.2021 21:38 5,1 C 8,3 C 4,2 C 5,1 C 5,1 C 0,0 C 89 % 94 % 1022,6 hPa 0,0 l/m 3,1 km/h (1 Bft) W 270 0 min 3,4 C 5,1 C 1,8 km/h (1 Bft)
19.12.2021 21:43 5,1 C 8,3 C 4,2 C 5,1 C 5,0 C 0,0 C 89 % 94 % 1022,6 hPa 0,0 l/m 3,5 km/h (1 Bft) O-SO 112 0 min 3,4 C 5,0 C 2,1 km/h (1 Bft)
19.12.2021 21:48 5,1 C 8,3 C 4,2 C 5,2 C 5,2 C 0,1 C 88 % 94 % 1022,5 hPa 0,0 l/m 3,2 km/h (1 Bft) N-NW 337 0 min 3,3 C 5,2 C 3,2 km/h (1 Bft)
19.12.2021 21:53 5,2 C 8,1 C 4,3 C 5,3 C 5,3 C 0,1 C 88 % 94 % 1022,5 hPa 0,0 l/m 2,6 km/h (1 Bft) N-NW 337 0 min 3,4 C 5,3 C 2,6 km/h (1 Bft)
19.12.2021 21:58 5,3 C 8,1 C 4,3 C 5,4 C 5,4 C 0,1 C 88 % 94 % 1022,5 hPa 0,0 l/m 3,1 km/h (1 Bft) NW 315 0 min 3,5 C 5,4 C 5,1 km/h (1 Bft)
19.12.2021 22:03 5,2 C 8,1 C 4,3 C 5,4 C 5,4 C 0,2 C 88 % 94 % 1022,5 hPa 0,0 l/m 2,7 km/h (1 Bft) W-SW 247 0 min 3,4 C 5,4 C 3,9 km/h (1 Bft)
19.12.2021 22:08 5,2 C 8,1 C 4,2 C 5,2 C 5,2 C 0,0 C 88 % 94 % 1022,3 hPa 0,0 l/m 2,3 km/h (1 Bft) S 180 0 min 3,4 C 5,2 C 2,3 km/h (1 Bft)
19.12.2021 22:13 5,2 C 8,1 C 4,1 C 5,1 C 5,0 C 0,0 C 88 % 94 % 1022,3 hPa 0,0 l/m 2,3 km/h (1 Bft) W-SW 247 0 min 3,4 C 5,0 C 2,1 km/h (1 Bft)
19.12.2021 22:18 5,1 C 8,1 C 4,1 C 5,1 C 5,0 C 0,0 C 88 % 94 % 1022,3 hPa 0,0 l/m 2,4 km/h (1 Bft) W-NW 292 0 min 3,3 C 5,0 C 3,2 km/h (1 Bft)
19.12.2021 22:23 5,1 C 8,1 C 4,0 C 5,0 C 4,8 C 0,0 C 88 % 94 % 1022,3 hPa 0,0 l/m 1,9 km/h (1 Bft) W 270 0 min 3,3 C 4,8 C 8,4 km/h (2 Bft)
19.12.2021 22:28 5,1 C 8,2 C 4,0 C 5,0 C 4,8 C 0,0 C 88 % 94 % 1022,4 hPa 0,0 l/m 1,8 km/h (1 Bft) SW 225 0 min 3,3 C 4,8 C 0,0 km/h (0 Bft)
19.12.2021 22:33 5,0 C 8,2 C 4,0 C 4,9 C 4,7 C 0,0 C 88 % 94 % 1022,4 hPa 0,0 l/m 2,6 km/h (1 Bft) NW 315 0 min 3,2 C 4,7 C 3,9 km/h (1 Bft)
19.12.2021 22:38 5,0 C 8,2 C 4,0 C 4,9 C 4,7 C 0,0 C 88 % 94 % 1022,4 hPa 0,0 l/m 2,7 km/h (1 Bft) W-SW 247 0 min 3,2 C 4,7 C 2,6 km/h (1 Bft)
19.12.2021 22:43 5,1 C 8,2 C 4,0 C 5,0 C 4,7 C 0,0 C 88 % 94 % 1022,4 hPa 0,0 l/m 2,4 km/h (1 Bft) W-NW 292 0 min 3,3 C 4,7 C 3,5 km/h (1 Bft)
19.12.2021 22:48 5,1 C 8,2 C 4,1 C 5,1 C 5,0 C 0,0 C 88 % 94 % 1022,6 hPa 0,7 l/m 2,4 km/h (1 Bft) W-SW 247 0 min 3,3 C 5,0 C 2,9 km/h (1 Bft)
19.12.2021 22:53 5,1 C 8,2 C 4,2 C 5,1 C 5,1 C 0,0 C 88 % 94 % 1022,6 hPa 0,0 l/m 2,7 km/h (1 Bft) W-SW 247 0 min 3,3 C 5,1 C 7,9 km/h (2 Bft)
19.12.2021 22:58 5,0 C 8,2 C 4,2 C 5,2 C 5,2 C 0,2 C 88 % 94 % 1022,6 hPa 0,0 l/m 2,3 km/h (1 Bft) W 270 0 min 3,2 C 5,2 C 0,0 km/h (0 Bft)
19.12.2021 23:03 4,9 C 8,2 C 4,1 C 5,1 C 5,1 C 0,2 C 88 % 94 % 1022,6 hPa 0,0 l/m 1,9 km/h (1 Bft) W 270 0 min 3,1 C 5,1 C 7,9 km/h (2 Bft)
19.12.2021 23:08 4,9 C 8,2 C 4,1 C 5,1 C 5,1 C 0,2 C 88 % 94 % 1022,9 hPa 0,0 l/m 1,8 km/h (1 Bft) W-NW 292 0 min 3,1 C 5,1 C 5,1 km/h (1 Bft)
19.12.2021 23:13 4,9 C 8,2 C 4,0 C 5,0 C 5,0 C 0,1 C 88 % 94 % 1022,9 hPa 0,0 l/m 2,9 km/h (1 Bft) NW 315 0 min 3,1 C 5,0 C 3,9 km/h (1 Bft)
19.12.2021 23:18 4,8 C 8,2 C 4,0 C 4,8 C 4,7 C 0,0 C 88 % 94 % 1022,9 hPa 0,0 l/m 3,7 km/h (1 Bft) SW 225 0 min 3,0 C 4,7 C 3,4 km/h (1 Bft)
19.12.2021 23:23 4,9 C 8,2 C 3,9 C 4,7 C 4,4 C 0,0 C 88 % 94 % 1022,9 hPa 0,0 l/m 3,5 km/h (1 Bft) N-NW 337 0 min 3,1 C 4,4 C 0,0 km/h (0 Bft)
19.12.2021 23:28 4,8 C 8,2 C 3,9 C 4,8 C 4,7 C 0,0 C 88 % 94 % 1022,7 hPa 0,0 l/m 2,4 km/h (1 Bft) W-SW 247 0 min 3,0 C 4,7 C 3,5 km/h (1 Bft)
19.12.2021 23:33 4,7 C 8,2 C 3,9 C 4,7 C 4,7 C 0,0 C 88 % 93 % 1022,7 hPa 0,0 l/m 2,6 km/h (1 Bft) W-SW 247 0 min 2,9 C 4,7 C 4,0 km/h (1 Bft)
19.12.2021 23:38 4,7 C 8,2 C 3,9 C 4,7 C 4,6 C 0,0 C 88 % 93 % 1022,7 hPa 0,0 l/m 3,4 km/h (1 Bft) W-SW 247 0 min 2,9 C 4,6 C 3,1 km/h (1 Bft)
19.12.2021 23:43 4,6 C 8,2 C 3,9 C 4,6 C 4,5 C 0,0 C 87 % 93 % 1022,7 hPa 0,0 l/m 3,4 km/h (1 Bft) W-SW 247 0 min 2,6 C 4,5 C 1,9 km/h (1 Bft)
19.12.2021 23:48 4,7 C 8,2 C 3,9 C 4,6 C 4,5 C 0,0 C 87 % 93 % 1022,7 hPa 0,0 l/m 3,4 km/h (1 Bft) NW 315 0 min 2,7 C 4,5 C 5,0 km/h (1 Bft)
19.12.2021 23:53 4,7 C 8,2 C 3,9 C 4,7 C 4,7 C 0,0 C 87 % 93 % 1022,7 hPa 0,0 l/m 2,4 km/h (1 Bft) NW 315 0 min 2,7 C 4,7 C 3,5 km/h (1 Bft)
19.12.2021 23:58 4,5 C 8,2 C 3,9 C 4,7 C 4,7 C 0,2 C 87 % 93 % 1022,7 hPa 0,0 l/m 2,6 km/h (1 Bft) SW 225 0 min 2,5 C 4,7 C 3,5 km/h (1 Bft)
_ Min-Zeit 23:58 07:45 21:13 18:28 10:15 00:00 05:25 05:40 20:28 - 18:53 - - - 23:58 10:15 15:03
Minimum _ 4,5 C 8,0 C 3,8 C 4,6 C 3,6 C 0,0 C 86 % 91 % 1021,8 hPa - 1,4 km/h (1 Bft) - - - 2,5 C 1,5 C 0,0 km/h (0 Bft)
_ Max-Zeit 04:20 00:00 00:00 00:10 00:10 19:03 00:00 00:00 00:10 16:48 05:35 - - 00:00 04:20 01:55 06:05
Maximum _ 6,1 C 8,8 C 5,5 C 5,8 C 5,8 C 0,6 C 89 % 95 % 1031,2 hPa 0,7 l/m 10,3 km/h
SW (2 Bft)
- - 0 min 4,3 C 5,8 C 21,9 km/h
W-SW (4 Bft)
Durchschnitt _ 5,4 C 8,3 C 4,9 C 5,3 C 4,8 C 0,0 C 88 % 93 % 1025,2 hPa #1,4 l/m 5,6 km/h (1 Bft) SW - #0 min. 3,6 C 3,8 C 7,3 km/h (2 Bft)
2021 www.wetterstation-wechselburg.de